Tracking 23885 objects as of 28-Nov-2021
HD Live streaming from Space Station
objects crossing your sky now

SPACEBEENZ-5

Track SPACEBEENZ-5 now!
10-day predictions


NORAD ID: 46941
Int'l Code: 2020-085N
Perigee: 489.4 km
Apogee: 511.5 km
Inclination: 97.4 °
Period: 94.5 minutes
Semi major axis: 6871 km
RCS: Unknown
Launch date: November 20, 2020
Source: (NZL)
Launch site: Rocket Lab Launch Complex (RLLC)
aabbcc
Your satellite tracking list
Your tracking list is empty




NASA's NSSDC Master Catalog

Two Line Element Set (TLE):
1 46941U 20085N   21331.82744413  .00005633  00000-0  23367-3 0  9993
2 46941  97.4152 106.2168 0016085  72.9866 287.3135 15.24152847 56702
Source of the keplerian elements: AFSPC